Starlink 4470

operational
NORAD ID: 53655 Int'l Des: 2022-105 Owner: SPXS Country: US Constellation: starlink
LEOCIRCULARRETROGRADESSO

Starlink 4470について

説明を読み込み中...

リアルタイム位置

3D地球を読み込み中...

次回通過

高度履歴

Altitude vs Time

uPlot chart will show altitude changes over time

軌道要素

1 53655U 22105H 25260.13959259 -.00000232 00000-0 -13545-4 0 9993
2 53655 97.6040 140.3119 0002789 35.6638 324.4772 15.01261501167193
Epoch: Sep 17, 2025 • Age: 13 hours

現在のステータス

高度 569.4 km
速度 7.58 km/s
衛星直下点 -19.38°S, 94.25°W
打ち上げ日 Aug 31, 2022
運用期間 3 years
タイプ internet

技術仕様

分類 Payload
質量 300.00 kg
乾燥質量 290.00 kg
総質量 300.00 kg
長さ 0.20 m
直径 2.80 m
スパン 9.00 m
形状 Box + pan
製造者 SPXS
バスタイプ Starlink
フェーズステータス In Orbit
所有者/国 SPXS/US

大規模コンステレーション

Loading constellations...